Location: Gugi
(45.4667°N, 11.1000°E)
Time: 01:10:04
(UTC+00:00)

Cosmos 2263 Rocket - Pass Details

Date: 26 February 2020
Orbit: 822 x 850 km, 71.0° (Epoch: 28 March)

Event Time Altitude Azimuth Distance (km) Brightness Sun altitude
Rises 20:54:16 0° 337° (NNW) 3,417 6.0 -40.5°
Reaches altitude 10° 20:56:51 10° 345° (NNW) 2,481 5.1 -40.9°
Enters shadow 20:57:48 15° 349° (NNW) 2,150 4.7 -41.0°
